Regional Weather Roundup
Issued by NWS

Home | Current Version | Previous Version | Text Only | Print | Product List | Glossary On
Versions: 1 2 3 4 5 6 7 8 9 10 11 12 13 14 15 16 17 18 19 20 21 22 23 24 25 26 27 28 29 30 31 32 33 34 35 36 37 38 39 40 41 42 43 44 45 46 47 48 49 50
000
ASUS43 KLSX 181907
RWRMO

WEATHER SUMMARY FOR MISSOURI
NATIONAL WEATHER SERVICE SPRINGFIELD MO
200 PM CDT FRI AUG 18 2017

NOTE: "FAIR" INDICATES FEW OR NO CLOUDS BELOW 12,000 FEET WITH NO
       SIGNIFICANT WEATHER AND/OR OBSTRUCTIONS TO VISIBILITY.
       CURRENT SKY AND/OR WEATHER CONDITIONS ARE NOT AVAILABLE FOR
       CHILLICOTHE AND FARMINGTON.

MOZ001>031-035>038-043-044-053-054-182000-
...NORTHERN AND WESTERN MISSOURI...

CITY           SKY/WX    TMP DP  RH WIND       PRES   REMARKS
KANSAS CTY INT MOSUNNY   85  70  60 SW13      29.93F
KANSAS C DTWN  SUNNY     87  67  51 SW10      29.91F HX  90
LEE`S SUMMIT   CLOUDY    83  69  62 SW12      29.95F
ST JOSEPH      SUNNY     87  68  52 SW9       29.91F HX  90
CHILLICOTHE      N/A     86  67  52 S12       29.92F
KIRKSVILLE     CLOUDY    87  64  46 SW9       29.92F

$$
MOZ066>068-077>081-088>096-101>105-182000-
...SOUTHWEST MISSOURI...

CITY           SKY/WX    TMP DP  RH WIND       PRES   REMARKS
SPRINGFIELD    CLOUDY    82  73  74 SW10      30.00F
JOPLIN         CLOUDY    86  77  74 SW12      29.99F HX  97
BRANSON        MOSUNNY   86  68  54 CALM      30.04F

$$
MOZ032>034-039>042-045>050-055>058-069>072-182000-
...CENTRAL MISSOURI...

CITY           SKY/WX    TMP DP  RH WIND       PRES   REMARKS
COLUMBIA       CLOUDY    82  68  62 SW9       29.98S
JEFFERSON CITY CLOUDY    82  72  71 S10       29.96S
ROLLA          CLOUDY    80  67  64 SW6       30.01F
SEDALIA        CLOUDY    77  71  82 S10       29.98F
WHITEMAN AFB   PTSUNNY   76  75  97 S9        29.95F
WARRENSBURG    CLOUDY    79  68  69 S6        29.95F
OSAGE BEACH    CLOUDY    79  68  69 SW5       30.00F

$$
MOZ051-052-059>065-182000-
...EAST CENTRAL MISSOURI...

CITY           SKY/WX    TMP DP  RH WIND       PRES   REMARKS
ST LOUIS INTL  MOSUNNY   88  62  41 CALM      29.96F
SPIRIT OF STL  MOSUNNY   87  65  47 S5        29.95F
ST CHARLES     SUNNY     85  63  47 W8        29.95F

$$
MOZ072>076-082>087-097>100-106>115-182000-
...SOUTH CENTRAL AND SOUTHEAST MISSOURI...

CITY           SKY/WX    TMP DP  RH WIND       PRES   REMARKS
CAPE GIRARDEAU SUNNY     84  65  52 CALM      29.98F
FARMINGTON     SUNNY     86  65  49 SW8       30.00F
POPLAR BLUFF   SUNNY     88  64  44 W8        29.98F
WEST PLAINS    CLOUDY    85  59  41 SW8       30.04F

$$


USA.gov is the U.S. government's official web portal to all federal, state and local government web resources and services.